Overview Statistics Trail Chart Weather Telemetry Raw packets
 

This is the latest recevied weather packets stored in our database for station/object SV9TNF-57. If no packets are shown the sender has not sent any weather packets the latest 10 day(s).

<< 81 82 83 84 85 86 87 >>
Time Temp. Humidity Pressure Rain* Wind** Luminosity Snow
1788071232 27.22° C 52% 996.5 hPa 0 mm 0 m/s - -
1788070932 27.22° C 53% 996.2 hPa 0 mm 0 m/s - -
1788070632 26.67° C 54% 996.2 hPa 0 mm 0.45 m/s, 287° - -
1788070331 26.67° C 55% 996.3 hPa 0 mm 4.92 m/s, 12° - -
1788070031 26.11° C 59% 996.3 hPa 0 mm 6.26 m/s, 304° - -
1788069731 26.11° C 62% 996.3 hPa 0 mm 0 m/s - -
1788069442 25.56° C 65% 996.3 hPa 0 mm 0 m/s - -
1788069131 25.56° C 66% 996.4 hPa 0 mm 0 m/s - -
1788068831 25.56° C 67% 996 hPa 0 mm 0.89 m/s, 314° - -
1788068531 25.56° C 68% 996.6 hPa 0 mm 0 m/s - -
1788068231 25° C 69% 996.2 hPa 0 mm 3.58 m/s, 294° - -
1788067931 25° C 70% 996.3 hPa 0 mm 1.34 m/s, 289° - -
1788067630 24.44° C 71% 996.5 hPa 0 mm 0.89 m/s, 346° - -
1788067330 24.44° C 72% 996.4 hPa 0 mm 0 m/s - -
1788067030 24.44° C 72% 996.4 hPa 0 mm 0 m/s - -
1788066730 23.89° C 72% 996.3 hPa 0 mm 3.13 m/s, 333° - -
1788066430 23.89° C 73% 996 hPa 0 mm 4.92 m/s, 312° - -
1788066130 23.89° C 74% 996.1 hPa 0 mm 0.89 m/s, 305° - -
1788065830 23.33° C 75% 996.3 hPa 0 mm 1.79 m/s, 17° - -
1788065530 23.33° C 75% 996 hPa 0 mm 0 m/s - -
1788065229 23.33° C 76% 995.9 hPa 0 mm 0.45 m/s, 348° - -
1788064935 23.33° C 75% 996 hPa 0 mm 0 m/s - -
1788064629 23.33° C 75% 995.9 hPa 0 mm 6.71 m/s, 350° - -
1788064329 23.33° C 75% 995.7 hPa 0 mm 0.89 m/s, 312° - -
1788064029 23.33° C 75% 995.7 hPa 0 mm 2.68 m/s, 317° - -

* Rain latest hour (hover to see other rain measurements)
** Current wind speed in m/s (hover to see current wind gust speed)